User: anonymous   Login
Location: Colonia Mina de C?rbuni
(46.1667°N, 22.7167°E)
Time: 23:55:34
(UTC+00:00)
Language:

Vanguard 3 - Orbit

View from above orbital plane
View from above orbital plane
View from above satellite
View from above satellite

Ground track
Ground track

The orbit data is extracted from the following two-line orbital elements,

1 00020U 59007A   24107.59281827  .00005618  00000-0  23102-2 0  9999
2 00020  33.3391 230.5871 1651677 139.1934 234.4871 11.58398304392628
Epoch (UTC): 16 April 2024 14:13:39
Eccentricity: 0.1651677
inclination: 33.3391°
perigee height: 510 km
apogee height: 3235 km
right ascension of ascending node: 230.5871°
argument of perigee: 139.1934°
revolutions per day: 11.58398304
mean anomaly at epoch: 234.4871°
orbit number at epoch: 39262

The dashed part of the orbit path shows where the satellite is in the earth's shadow,  

DLR